Jaffrey, NH

1:02 PM EDT on August 19, 2017 (GMT -0400)
Jaffrey Airport-Silver Ranch

Weather History for KAFN - November, 2011

Change the Weather History Date:

Sunday, November 27, 2011

  Actual Average Record
Temperature  
Mean Temperature 36 °F -  
Max Temperature 48 °F 40 °F 60 °F (1999)
Min Temperature 28 °F 25 °F 12 °F (2002)
Degree Days  
Heating Degree Days 28    
Moisture  
Dew Point 35 °F    
Average Humidity 97    
Maximum Humidity 100    
Minimum Humidity 86    
Precipitation  
Precipitation 0.00 in - - ()
Sea Level Pressure  
Sea Level Pressure 30.17 in    
Wind  
Wind Speed 0 mph (NNE)    
Max Wind Speed 6 mph    
Max Gust Speed -    
Visibility 4 miles    
Events Fog    
Averages and records for this station are not official NWS values.
T = Trace of Precipitation, MM = Missing Value Source: NWS Daily Summary

Daily Weather History Graph

Daily Weather History Graph

Search for Another Location

Airport or City:

Trip Planner

Search our weather history database for the weather conditions in past years. The results will help you decide how hot, cold, wet, or windy it might be!

Date:

Astronomy

Nov. 27, 2011 Rise Set
Actual Time 6:54 AM EST 4:16 PM EST
Civil Twilight 6:22 AM EST 4:48 PM EST
Nautical Twilight 5:47 AM EST 5:23 PM EST
Astronomical Twilight 5:13 AM EST 5:56 PM EST
Moon 9:17 AM EST (11/27) 6:51 PM EST (11/27)
Length of Visible Light 10h 25m
Length of Day
9h 22m
Waxing Crescent, 8% of the Moon is Illuminated
Nov 27
Waxing Crescent
Dec 2
First Quarter
Dec 10
Full
Dec 17
Last Quarter
Dec 24
New

Hourly Weather History & Observations

Time (EST) Temp. Windchill Dew Point Humidity Pressure Visibility Wind Dir Wind Speed Gust Speed Precip Events Conditions
12:52 AM 32.0 °F - 30.9 °F 96% 30.21 in 5.0 mi Calm Calm - N/A   Clear
1:52 AM 30.9 °F - 30.0 °F 96% 30.22 in 5.0 mi Calm Calm - N/A   Clear
2:52 AM 30.0 °F - 28.9 °F 96% 30.23 in 3.0 mi Calm Calm - N/A   Clear
3:52 AM 28.9 °F - 28.0 °F 96% 30.23 in 6.0 mi Calm Calm - N/A   Clear
4:50 AM 28.4 °F - 26.6 °F 93% 30.18 in 7.0 mi Calm Calm - N/A   Scattered Clouds
5:20 AM 28.4 °F - 26.6 °F 93% 30.19 in 6.0 mi Calm Calm - N/A   Scattered Clouds
5:52 AM 28.0 °F - 27.0 °F 96% 30.23 in 6.0 mi Calm Calm - N/A   Partly Cloudy
6:05 AM 28.4 °F - 28.4 °F 100% 30.19 in 6.0 mi Calm Calm - N/A   Mostly Cloudy
6:26 AM 28.4 °F - 28.4 °F 100% 30.19 in 1.5 mi Calm Calm - N/A   Overcast
6:28 AM 28.4 °F - 28.4 °F 100% 30.19 in 1.0 mi Calm Calm - N/A   Overcast
6:37 AM 30.2 °F - 30.2 °F 100% 30.19 in 0.5 mi Calm Calm - N/A Fog Light Freezing Fog
6:52 AM 30.9 °F - 30.0 °F 96% 30.24 in 0.5 mi Calm Calm - N/A Fog Light Freezing Fog
7:52 AM 33.1 °F - 33.1 °F 100% 30.25 in 0.2 mi Calm Calm - N/A Fog Fog
8:52 AM 36.0 °F - 36.0 °F 100% 30.24 in 0.2 mi Calm Calm - N/A Fog Fog
9:52 AM 37.9 °F - 37.9 °F 100% 30.24 in 0.2 mi Calm Calm - N/A Fog Fog
10:52 AM 39.9 °F - 39.9 °F 100% 30.23 in 1.2 mi Calm Calm - N/A   Overcast
11:14 AM 39.2 °F - 39.2 °F 100% 30.19 in 4.0 mi Calm Calm - N/A   Overcast
11:52 AM 41.0 °F 38.0 °F 39.9 °F 96% 30.22 in 6.0 mi Variable 4.6 mph - N/A   Overcast
12:52 PM 42.1 °F 39.2 °F 41.0 °F 96% 30.19 in 8.0 mi NNE 4.6 mph - N/A   Overcast
1:45 PM 44.6 °F 43.1 °F 41.0 °F 87% 30.13 in 10.0 mi Variable 3.5 mph - N/A   Partly Cloudy
1:52 PM 44.1 °F 42.5 °F 41.0 °F 89% 30.17 in 10.0 mi North 3.5 mph - N/A   Partly Cloudy
2:52 PM 45.0 °F - 41.0 °F 86% 30.18 in 10.0 mi Calm Calm - N/A   Clear
3:52 PM 43.0 °F - 41.0 °F 93% 30.18 in 9.0 mi Calm Calm - N/A   Clear
4:52 PM 39.0 °F - 37.9 °F 96% 30.17 in 4.0 mi Calm Calm - N/A   Clear
5:20 PM 37.4 °F - 37.4 °F 100% 30.12 in 1.8 mi Calm Calm - N/A   Clear
5:32 PM 37.4 °F - 37.4 °F 100% 30.12 in 3.0 mi Calm Calm - N/A   Clear
5:52 PM 37.0 °F - 37.0 °F 100% 30.18 in 3.0 mi Calm Calm - N/A   Clear
6:50 PM 37.4 °F - 37.4 °F 100% 30.13 in 4.0 mi Calm Calm - N/A   Mostly Cloudy
6:52 PM 37.9 °F - 37.0 °F 97% 30.18 in 4.0 mi Calm Calm - N/A   Mostly Cloudy
7:14 PM 37.4 °F - 35.6 °F 93% 30.11 in 3.0 mi Calm Calm - N/A   Scattered Clouds
7:47 PM 37.4 °F - 35.6 °F 93% 30.11 in 2.0 mi Calm Calm - N/A   Scattered Clouds
7:52 PM 37.0 °F - 36.0 °F 96% 30.16 in 2.0 mi Calm Calm - N/A   Partly Cloudy
8:21 PM 35.6 °F - 35.6 °F 100% 30.10 in 1.2 mi Calm Calm - N/A   Scattered Clouds
8:25 PM 35.6 °F - 35.6 °F 100% 30.10 in 0.8 mi Calm Calm - N/A   Mist
8:32 PM 33.8 °F - 33.8 °F 100% 30.10 in 1.2 mi Calm Calm - N/A   Scattered Clouds
8:37 PM 35.6 °F - 33.8 °F 93% 30.10 in 2.0 mi Calm Calm - N/A   Scattered Clouds
8:52 PM 34.0 °F - 34.0 °F 100% 30.14 in 2.5 mi Calm Calm - N/A   Partly Cloudy
9:02 PM 33.8 °F - 33.8 °F 100% 30.10 in 3.0 mi Calm Calm - N/A   Partly Cloudy
9:52 PM 34.0 °F - 34.0 °F 100% 30.14 in 4.0 mi Calm Calm - N/A   Clear
10:52 PM 39.0 °F 36.8 °F 37.9 °F 96% 30.12 in 4.0 mi South 3.5 mph - N/A   Clear
11:52 PM 48.0 °F - 46.9 °F 96% 30.11 in 10.0 mi SW 5.8 mph - N/A   Clear